#timestamp,LO_Frequency,Hit,StdDev 
1653127215.3,286046998.4,N
1653127235.1,286046999.0,N
1653127255.9,286046998.5,N
1653127275.7,286046998.1,N
1653127295.6,286046998.7,N
1653127315.4,286046999.8,N
1653127335.2,286047004.3,Y
1653127355.1,286047003.5,P
1653127356.0,286047003.5,N
1653127375.8,286047003.2,N
1653127395.6,286047001.3,N
1653127415.5,286047001.3,N
1653127435.3,286047001.8,N
1653127455.2,286047002.2,N
1653127475.9,286047002.7,N
1653127495.7,286047002.7,N
1653127515.6,286047001.9,N
1653127535.4,286047002.6,N
1653127555.2,286047004.4,Y
1653127575.1,286047000.1,P
1653127576.0,286047000.1,N
1653127595.8,286047000.2,N
1653127615.7,286047000.6,N
1653127635.5,286047000.4,N
1653127655.3,286047000.1,N
1653127675.2,286047002.7,Y
1653127695.0,286047000.3,P
1653127695.9,286047000.3,N
1653127715.8,286047000.5,P
1653127735.6,286047001.8,Y
1653127755.4,286047001.6,P
1653127775.3,286047002.6,P
1653127795.1,286047000.7,N
1653127815.8,286047000.6,N
1653127835.7,286047000.0,N
1653127855.5,286047000.4,N
1653127875.4,286047002.4,N
1653127895.2,286047000.5,N
1653127915.0,286047001.2,N
1653127915.9,286047001.2,N
1653127935.8,286046998.8,N
1653127955.6,286046999.6,N
1653127975.5,286046999.5,N
1653127995.3,286047001.1,N
1653128015.1,286047001.2,N
1653128035.9,286046999.3,N
1653128055.7,286046999.3,N
1653128075.5,286046998.4,N
1653128095.4,286046998.5,N
1653128115.2,286046998.9,N
1653128135.0,286046996.9,N
1653128136.0,286046996.9,N
1653128155.8,286046998.5,N
1653128175.6,286046998.7,N
1653128195.5,286046998.5,N
1653128215.3,286046998.9,N
1653128235.1,286046999.0,N
1653128255.9,286046998.5,N
1653128275.7,286047001.0,N
1653128295.5,286047000.7,N
1653128315.4,286047001.2,N
1653128335.2,286046998.1,N
1653128355.1,286047000.7,N
1653128356.0,286047000.7,N
1653128375.8,286046998.5,N
1653128395.6,286046998.7,N
1653128415.5,286046998.8,N
1653128435.3,286047000.7,N
1653128455.2,286047001.2,N
1653128475.0,286046998.8,N
1653128475.9,286046998.8,N
1653128495.7,286046999.2,N
1653128515.6,286046996.8,N
1653128535.4,286046996.7,N
1653128555.3,286046999.6,N
1653128575.1,286046996.7,N
1653128576.0,286046996.7,N
1653128595.8,286046997.9,N
1653128615.7,286046994.9,Y
1653128635.5,286046996.7,P
1653128655.4,286046997.4,N
1653128675.2,286046998.0,N
1653128695.0,286046998.0,N
1653128695.9,286046998.0,N
1653128715.8,286046997.4,Y
1653128735.6,286047000.8,P
1653128755.5,286046999.1,N
1653128775.3,286046999.5,N
1653128795.1,286046996.7,Y
1653128815.9,286046999.4,P
1653128835.7,286046998.8,P
1653128855.5,286046999.2,P
1653128875.4,286046997.3,Y
1653128895.2,286046998.8,P
1653128915.1,286047000.6,P
1653128935.8,286046998.1,N
1653128955.7,286047002.7,N
1653128975.5,286047000.4,N
1653128995.4,286046998.7,N
1653129015.2,286047000.4,N
1653129035.0,286047001.1,N
1653129035.9,286047001.1,N
1653129055.8,286046999.1,N
1653129075.6,286046996.6,N
1653129095.4,286046997.2,N
1653129115.3,286046997.6,N
1653129135.1,286046997.7,N
1653129155.9,286046999.6,N
1653129175.7,286046999.5,N
1653129195.5,286046999.1,N
1653129215.4,286046999.6,N
1653129235.2,286046999.6,N
1653129255.1,286046999.1,N
1653129256.0,286046999.1,N
1653129275.8,286046998.6,N
1653129295.6,286047000.3,N
1653129315.5,286046998.9,N
1653129335.3,286046999.1,N
1653129355.1,286046999.1,N
1653129375.9,286046996.9,N
1653129395.7,286046997.2,N
1653129415.6,286046997.0,N
1653129435.4,286046995.2,Y
1653129455.2,286046997.3,P
1653129475.1,286046997.3,P
1653129476.0,286046997.3,P
1653129495.8,286046997.7,Y
1653129515.7,286046998.3,P
1653129535.5,286046998.7,P
1653129555.3,286047000.0,N
1653129575.2,286046998.1,N
1653129595.0,286046998.1,N
1653129595.9,286046998.1,N
1653129615.7,286046999.4,N
1653129635.6,286046999.2,N
1653129655.4,286046998.1,N
1653129675.3,286046999.1,N
1653129695.1,286046998.7,N
1653129696.0,286046998.7,N
1653129715.8,286046998.4,N
1653129735.7,286046996.5,Y
1653129755.5,286046998.7,P
1653129775.3,286047001.2,P
1653129795.2,286047001.1,N
1653129815.0,286047000.8,N
1653129815.9,286047000.8,N
1653129835.8,286046998.3,N
1653129855.6,286046999.1,N
1653129875.4,286046998.1,N
1653129895.3,286046998.6,N
1653129915.1,286046998.9,N
1653129935.8,286046999.4,N
1653129955.7,286046998.4,N
1653129975.5,286046999.4,N
1653129995.4,286046998.2,N
1653130015.2,286047000.8,N
1653130035.0,286047001.0,N
1653130035.9,286047001.0,N
1653130055.8,286046998.6,N
1653130075.6,286046999.0,N
1653130095.4,286047001.1,N
1653130115.3,286046998.5,N
1653130135.1,286046999.0,N
1653130155.9,286047000.6,N
1653130175.7,286047000.0,N
1653130195.5,286046998.6,N
1653130215.4,286046998.7,N
1653130235.2,286046999.2,N
1653130255.1,286046998.3,N
1653130256.0,286046998.3,N
1653130275.8,286047001.1,N
1653130295.6,286046998.3,N
1653130315.5,286046999.6,N
1653130335.3,286046997.2,N
1653130355.2,286046999.3,N
1653130375.9,286046996.6,Y
1653130395.7,286047000.2,P
1653130415.6,286047000.1,N
1653130435.4,286046999.9,N
1653130455.2,286047002.8,Y
1653130475.1,286047000.2,P
1653130476.0,286047000.2,N
1653130495.8,286047001.0,P
1653130515.7,286047000.8,N
1653130535.5,286047000.9,N
1653130555.3,286046998.3,Y
1653130575.2,286046998.1,P
1653130595.0,286046998.8,N
1653130595.9,286046998.8,N
1653130615.8,286047002.8,Y
1653130635.6,286047001.5,P
1653130655.4,286047000.2,N
1653130675.3,286047000.6,N
1653130695.1,286047000.3,N
1653130715.8,286047002.4,Y
1653130735.7,286047000.7,P
1653130755.5,286047000.7,P
1653130775.8,286047001.0,P
1653130795.6,286046998.3,Y
